Wind_Speed
13 12 11 12 12 12 12 11 10 9 8 7 7 7 7 7 6 5 5 5 5 6 7 6 6 6 5 5 4 5 7 6 6 5 4 4 3 3 4 5 6 7 7 8
14 12 12 12 12 12 12 11 10 10 10 8 8 7 7 6 6 6 6 6 6 6 7 7 7 6 6 6 5 6 7 7 6 6 5 4 3 3 4 5 6 7 7 8
14 13 14 13 12 12 12 11 10 10 9 9 9 8 8 6 6 6 6 6 7 7 7 7 7 7 7 7 6 6 7 7 6 6 5 4 3 3 3 4 5 6 6 7
15 15 14 13 13 13 12 12 12 10 10 10 10 9 8 7 7 6 6 6 7 7 7 7 8 7 7 8 8 6 7 7 7 6 6 5 4 3 3 3 5 6 6 7
15 15 14 13 13 13 12 13 13 12 11 10 10 9 8 8 7 6 7 7 8 8 8 8 8 7 8 9 9 8 8 8 7 7 7 6 4 3 3 3 4 5 6 7
16 16 15 14 13 13 13 13 13 13 11 10 10 10 7 7 6 7 7 7 8 9 9 9 9 8 8 9 10 9 8 8 8 7 7 6 5 3 3 3 3 4 5 6
17 17 16 15 14 14 13 13 13 13 12 11 10 10 7 7 7 7 7 7 9 10 10 10 9 9 9 10 10 10 9 9 9 8 8 7 5 4 3 3 3 4 5 5
19 17 17 16 15 14 13 13 13 13 12 11 11 9 8 8 7 7 7 7 9 11 11 10 9 9 10 11 10 10 10 10 10 8 10 8 6 5 4 3 3 4 4 4
19 19 18 17 16 15 14 14 14 14 13 13 12 10 8 8 8 8 7 8 9 11 12 11 10 10 11 12 11 11 11 11 10 9 9 9 8 6 5 4 4 3 4 4
20 19 19 18 17 16 15 15 15 15 14 13 12 11 9 8 8 7 7 8 9 10 12 11 11 11 12 12 12 12 11 11 11 11 10 10 9 7 5 4 4 4 3 3
21 21 20 19 18 17 16 16 16 15 15 14 13 11 10 9 7 7 7 8 8 9 10 11 11 12 12 13 13 13 13 12 12 11 11 10 10 9 7 6 5 5 4 4
21 21 21 20 19 19 18 17 16 16 16 15 14 12 11 9 9 8 8 8 9 10 10 11 12 12 12 13 14 13 14 14 13 13 12 12 10 10 9 8 7 6 6 5
22 22 21 21 20 20 19 18 17 18 17 16 15 13 12 11 10 10 10 9 9 10 11 12 12 12 13 14 14 14 14 14 15 14 14 13 12 11 11 10 9 8 7 7
24 23 22 21 20 19 19 18 18 18 18 16 15 14 13 13 12 11 11 11 10 10 12 13 13 12 13 13 15 15 15 15 15 15 15 14 13 13 12 11 11 10 9 8
24 24 23 22 21 20 21 19 19 18 17 17 15 15 13 13 13 12 12 12 11 11 12 13 14 13 13 14 15 16 16 16 16 16 16 15 15 14 14 13 12 11 10 9
25 25 25 24 22 21 21 20 20 19 18 17 16 14 13 13 13 13 13 12 12 12 13 13 13 14 14 15 15 16 17 17 16 17 16 16 16 15 15 15 14 12 11 10
25 26 26 25 23 22 21 20 19 19 18 17 16 14 15 15 14 13 12 12 12 11 12 12 13 13 14 15 16 16 17 18 18 18 18 17 16 16 16 15 15 14 13 12
26 26 26 26 24 24 20 20 20 19 18 17 16 15 15 15 14 14 13 13 13 12 12 13 14 14 13 14 16 17 18 18 19 19 18 18 17 17 17 16 17 16 15 15
27 26 26 26 25 23 22 21 20 19 18 18 17 16 16 16 15 14 13 13 13 13 13 14 14 14 14 14 15 16 17 18 18 20 19 19 19 18 17 17 17 17 16 16
27 27 27 26 25 23 21 20 20 20 19 18 17 17 17 16 15 14 14 14 15 15 14 14 15 15 15 15 15 16 17 18 18 19 20 20 20 19 18 18 18 18 17 17
28 28 27 26 25 22 20 21 20 21 18 18 17 17 16 15 14 14 15 15 15 15 15 15 15 16 16 16 16 16 17 17 18 18 19 20 19 19 19 19 20 19 18 18
29 28 27 26 25 21 20 20 21 20 18 17 17 16 16 15 15 15 16 16 15 15 16 16 16 16 17 17 17 17 17 18 18 18 19 20 20 19 18 18 18 19 19 19
30 28 27 26 23 21 21 21 20 20 18 17 17 17 16 16 16 16 16 16 16 16 17 17 17 17 17 17 17 17 17 18 18 18 19 19 20 19 19 18 18 19 19 19
30 28 27 26 24 23 22 21 20 20 19 18 18 18 18 17 17 16 16 16 16 16 17 16 17 17 17 18 18 18 19 19 19 19 19 19 19 20 19 19 19 20 20 20
30 29 28 26 25 24 23 21 20 20 20 19 18 18 19 18 17 17 17 17 17 17 17 17 17 17 17 18 19 19 19 19 20 20 20 20 20 21 21 20 20 20 21 21
31 30 29 28 25 24 23 23 21 20 19 18 18 19 19 19 18 18 17 18 18 18 18 17 17 16 17 18 18 19 19 20 20 21 21 21 22 22 22 22 22 22 22 22
Wind_Direction
254 255 257 258 257 257 258 259 262 263 258 259 264 263 261 266 263 256 246 240 231 219 212 210 211 209 199 200 198 188 187 184 170 165 154 132 111 83 67 58 52 50 53 55
254 254 254 255 257 257 258 257 260 262 261 262 264 265 263 261 262 255 245 232 230 220 213 210 211 205 196 197 195 187 184 181 176 169 152 134 116 91 74 61 55 54 61 64
252 251 252 253 255 255 257 256 256 257 255 259 260 262 264 261 263 254 240 234 226 220 208 205 206 205 198 197 195 188 184 182 177 173 160 144 125 105 83 67 62 61 65 68
247 247 248 250 251 253 255 255 256 255 255 257 259 258 265 261 258 251 242 234 225 221 208 205 204 200 198 199 196 192 182 182 186 184 174 164 146 127 102 76 69 69 72 73
246 244 244 245 247 249 250 251 255 257 257 257 256 256 261 260 256 247 240 232 225 215 207 205 205 200 197 197 197 197 190 188 189 187 181 175 158 140 121 99 84 85 83 80
243 242 241 243 245 247 245 249 252 255 254 254 258 258 254 257 252 250 241 230 217 216 210 205 207 203 201 197 199 200 198 195 191 190 184 178 163 150 139 125 110 102 93 86
242 240 239 239 242 243 244 248 252 252 251 253 258 262 257 252 249 246 235 226 213 217 213 208 210 207 206 201 203 202 203 201 197 195 185 177 171 162 147 141 133 119 108 97
239 235 236 238 240 242 244 245 249 249 252 254 257 263 255 249 248 243 232 226 215 214 211 210 212 210 207 204 206 206 207 206 201 196 187 182 179 171 163 153 144 133 124 111
237 233 235 235 236 238 240 241 245 247 250 255 259 258 246 245 248 246 235 224 217 212 210 212 214 214 211 208 208 208 211 210 206 201 189 186 184 182 180 170 163 153 144 132
236 234 234 236 236 238 240 240 242 244 249 255 259 259 251 246 241 238 233 221 217 213 211 211 213 215 214 212 211 211 214 213 211 207 199 195 192 191 191 187 182 177 167 157
237 235 235 237 237 238 239 238 240 244 247 253 258 259 254 246 242 238 236 223 215 214 216 213 215 216 217 214 214 216 216 216 213 210 207 201 199 202 205 203 201 200 194 187
237 236 235 236 237 236 237 238 239 242 246 249 253 254 250 245 239 236 233 227 218 211 215 217 217 219 221 219 218 219 218 217 215 214 210 207 204 204 206 207 209 211 209 209
235 235 235 234 235 236 237 239 239 241 246 248 248 249 247 248 243 237 235 228 222 218 218 218 220 222 224 222 220 219 219 219 218 216 212 209 208 209 211 213 213 215 215 214
233 234 235 236 236 236 237 239 240 243 245 248 248 248 247 247 245 240 236 232 229 229 223 222 224 226 225 223 221 220 220 222 219 217 215 214 213 215 215 216 218 220 221 223
232 232 234 235 235 236 237 237 239 242 245 246 247 246 246 245 246 245 241 236 231 227 224 225 228 230 226 224 224 220 222 222 221 220 219 220 221 221 221 219 221 225 227 229
231 232 234 235 235 237 237 235 238 240 243 243 245 245 243 244 243 242 240 238 235 231 227 228 229 229 228 226 225 224 225 225 224 222 221 223 224 224 224 224 224 226 227 228
230 232 234 235 235 234 235 236 237 239 241 241 242 242 242 243 243 241 239 243 243 236 231 234 233 230 227 226 227 226 227 228 227 224 224 226 226 226 225 227 227 228 230 232
228 231 233 234 233 234 233 236 236 236 236 235 235 236 242 245 243 239 239 243 243 238 236 236 234 233 232 229 228 228 229 229 228 227 228 227 228 228 229 230 230 231 233 234
229 230 232 233 234 234 234 235 234 232 232 233 233 234 240 243 241 239 240 243 242 240 240 238 235 234 235 233 230 229 230 231 230 228 227 230 231 231 232 232 233 234 236 236
226 226 228 231 233 233 232 232 231 230 229 230 233 236 239 241 241 239 239 241 240 239 239 238 237 238 235 234 232 231 232 231 233 231 230 231 232 231 232 234 236 237 238 237
225 225 226 229 232 230 230 230 230 230 228 231 232 234 238 240 239 239 240 240 239 237 238 239 239 239 237 236 233 231 230 230 232 232 231 231 232 232 233 236 238 238 240 239
225 225 226 227 228 226 229 228 228 229 229 227 228 231 235 237 237 238 240 240 235 234 238 240 241 240 239 235 232 231 231 231 231 232 234 232 231 233 235 237 236 237 240 240
224 226 227 227 226 225 225 226 226 228 230 229 228 231 235 237 238 238 239 241 239 237 238 241 241 240 239 235 231 230 229 232 233 233 233 234 232 232 235 237 239 240 242 244
225 225 225 225 223 222 224 225 226 228 229 229 230 233 236 238 238 239 241 240 240 241 239 240 238 238 239 237 234 232 231 234 235 235 234 234 233 235 237 240 241 242 244 247
222 223 223 223 221 222 224 225 228 229 230 231 232 235 237 239 238 238 240 240 241 241 239 239 239 238 238 237 236 234 233 234 235 235 235 235 235 237 240 242 244 245 246 248
221 223 223 223 223 225 225 225 226 228 230 230 233 235 235 235 236 236 239 241 242 241 239 238 236 237 237 237 236 234 233 235 237 237 237 237 237 239 242 244 245 247 249 250
Height
5862 5863 5863 5863 5864 5864 5865 5865 5865 5865 5865 5865 5865 5865 5865 5864 5864 5864 5865 5865 5866 5866 5867 5868 5868 5869 5870 5871 5872 5872 5874 5874 5875 5876 5876 5877 5877 5877 5876 5875 5874 5873 5871 5870
5860 5860 5861 5861 5861 5861 5862 5862 5862 5862 5862 5863 5862 5863 5862 5862 5863 5863 5863 5864 5864 5864 5865 5866 5867 5868 5869 5870 5871 5872 5873 5874 5875 5876 5876 5877 5877 5877 5876 5875 5874 5873 5872 5871
5856 5858 5857 5858 5858 5858 5859 5859 5860 5860 5860 5860 5861 5861 5861 5861 5861 5861 5861 5862 5862 5862 5863 5864 5866 5867 5868 5869 5871 5871 5872 5873 5874 5875 5876 5876 5877 5877 5877 5876 5875 5874 5873 5872
5852 5853 5854 5854 5855 5855 5856 5856 5857 5857 5858 5858 5859 5859 5859 5859 5859 5859 5860 5860 5860 5861 5862 5863 5864 5865 5867 5868 5870 5871 5872 5873 5874 5875 5876 5876 5877 5877 5877 5877 5876 5875 5874 5873
5849 5849 5850 5851 5852 5852 5853 5853 5854 5854 5855 5856 5856 5857 5858 5857 5857 5857 5858 5858 5858 5859 5860 5861 5863 5864 5865 5867 5869 5870 5871 5872 5873 5874 5875 5876 5877 5877 5877 5877 5877 5876 5876 5875
5845 5845 5846 5847 5848 5849 5850 5851 5851 5851 5852 5853 5853 5854 5855 5855 5855 5855 5855 5856 5857 5858 5859 5860 5861 5863 5864 5866 5867 5869 5870 5872 5873 5874 5875 5876 5876 5877 5877 5877 5877 5877 5877 5876
5840 5842 5842 5844 5845 5846 5847 5848 5848 5848 5849 5850 5850 5850 5853 5852 5852 5852 5853 5854 5855 5856 5857 5858 5860 5861 5863 5865 5866 5868 5869 5871 5872 5873 5874 5875 5876 5877 5877 5877 5878 5878 5877 5877
5836 5838 5839 5840 5841 5842 5843 5845 5846 5847 5847 5847 5847 5847 5850 5849 5849 5849 5850 5851 5852 5853 5855 5856 5858 5859 5861 5863 5865 5867 5868 5870 5871 5872 5873 5874 5876 5876 5877 5877 5878 5878 5878 5878
5831 5834 5835 5836 5837 5839 5840 5841 5842 5843 5843 5844 5844 5845 5846 5846 5846 5847 5848 5849 5850 5851 5852 5854 5856 5857 5859 5861 5863 5865 5867 5868 5870 5871 5872 5873 5875 5876 5877 5877 5878 5878 5878 5878
5827 5829 5831 5832 5833 5835 5836 5837 5838 5839 5840 5841 5842 5842 5844 5844 5844 5845 5845 5846 5847 5848 5850 5851 5853 5855 5857 5859 5861 5863 5865 5866 5868 5869 5871 5872 5873 5875 5876 5877 5877 5878 5878 5878
5821 5824 5826 5828 5829 5831 5833 5834 5835 5836 5837 5838 5838 5842 5841 5841 5842 5842 5843 5844 5845 5846 5847 5849 5851 5853 5855 5857 5859 5861 5863 5864 5866 5868 5869 5871 5872 5874 5875 5876 5877 5877 5878 5878
5816 5819 5821 5823 5825 5826 5828 5829 5831 5833 5834 5834 5835 5840 5838 5838 5839 5840 5841 5842 5843 5844 5845 5847 5849 5851 5853 5854 5856 5858 5860 5862 5864 5866 5868 5869 5871 5872 5873 5875 5875 5876 5877 5877
5811 5814 5816 5818 5822 5822 5823 5825 5827 5828 5830 5831 5832 5836 5835 5835 5836 5837 5838 5840 5840 5841 5843 5845 5846 5848 5850 5852 5854 5856 5858 5860 5862 5864 5865 5867 5869 5870 5872 5873 5874 5875 5875 5876
5805 5808 5812 5815 5816 5818 5820 5821 5823 5824 5826 5827 5829 5831 5832 5832 5833 5834 5835 5837 5838 5839 5841 5842 5844 5845 5847 5849 5851 5853 5855 5857 5859 5861 5863 5865 5866 5868 5870 5871 5872 5873 5874 5875
5799 5803 5805 5808 5811 5813 5815 5817 5818 5820 5822 5824 5825 5826 5828 5829 5830 5831 5833 5834 5835 5837 5838 5839 5841 5842 5844 5846 5848 5850 5852 5854 5856 5858 5860 5862 5864 5865 5867 5868 5870 5871 5872 5873
5794 5797 5800 5803 5806 5808 5810 5812 5814 5816 5817 5819 5821 5823 5824 5825 5827 5828 5830 5831 5832 5834 5835 5836 5838 5839 5841 5843 5845 5847 5849 5851 5853 5855 5857 5859 5861 5862 5864 5866 5867 5868 5869 5870
5788 5791 5794 5797 5800 5802 5805 5808 5810 5811 5813 5815 5817 5820 5820 5822 5823 5825 5826 5828 5829 5830 5832 5833 5835 5836 5838 5840 5842 5844 5845 5848 5850 5852 5854 5856 5857 5859 5861 5862 5864 5865 5866 5868
5783 5785 5788 5791 5795 5797 5803 5803 5805 5807 5809 5811 5813 5814 5816 5818 5820 5821 5823 5824 5826 5827 5829 5830 5831 5833 5834 5836 5838 5840 5841 5843 5846 5848 5850 5852 5854 5856 5857 5859 5860 5862 5863 5864
5777 5780 5783 5786 5788 5792 5796 5798 5800 5802 5804 5806 5808 5810 5812 5813 5815 5817 5819 5821 5822 5823 5825 5826 5828 5829 5831 5832 5834 5836 5838 5839 5842 5844 5846 5848 5850 5852 5853 5855 5857 5858 5859 5860
5770 5774 5778 5780 5783 5786 5791 5793 5795 5798 5800 5802 5804 5806 5808 5809 5812 5814 5815 5816 5818 5819 5821 5822 5824 5825 5827 5828 5830 5832 5833 5835 5838 5840 5841 5844 5845 5847 5849 5851 5852 5854 5855 5857
5764 5767 5771 5774 5777 5781 5785 5787 5790 5794 5797 5798 5800 5802 5804 5805 5808 5810 5810 5812 5813 5815 5817 5818 5819 5821 5822 5824 5826 5828 5829 5831 5834 5835 5837 5839 5841 5843 5844 5846 5848 5849 5851 5852
5758 5762 5765 5769 5772 5779 5780 5782 5785 5789 5791 5794 5795 5797 5799 5801 5803 5804 5806 5807 5809 5811 5812 5814 5815 5816 5818 5819 5821 5823 5825 5827 5829 5831 5832 5834 5836 5838 5840 5842 5843 5845 5847 5848
5752 5757 5760 5765 5770 5773 5775 5778 5780 5783 5786 5788 5791 5793 5795 5797 5798 5800 5801 5803 5804 5806 5807 5809 5810 5812 5813 5815 5817 5819 5821 5822 5824 5826 5828 5830 5832 5834 5836 5838 5839 5841 5842 5844
5746 5750 5754 5758 5763 5767 5770 5773 5776 5778 5781 5783 5786 5788 5790 5792 5794 5795 5797 5798 5800 5801 5802 5804 5806 5807 5809 5811 5812 5814 5816 5818 5820 5822 5824 5826 5827 5829 5831 5833 5834 5836 5837 5839
5739 5743 5747 5752 5757 5761 5765 5768 5771 5774 5776 5779 5781 5783 5785 5787 5789 5790 5792 5793 5795 5796 5798 5799 5801 5803 5804 5806 5808 5810 5812 5814 5816 5818 5819 5821 5823 5825 5826 5828 5830 5831 5832 5833
5733 5738 5742 5747 5752 5756 5760 5763 5765 5768 5771 5774 5776 5778 5780 5782 5784 5786 5787 5788 5790 5791 5793 5794 5796 5798 5800 5801 5803 5805 5807 5809 5811 5812 5814 5816 5818 5820 5822 5823 5824 5825 5827 5828